Regional Weather Roundup
Issued by NWS Charleston, SC

Current Version | Previous Version | Graphics & Text | Print | Product List | Glossary On
Versions: 1 2 3 4 5 6 7 8 9 10 11 12 13 14 15 16 17 18 19 20 21 22 23 24 25 26 27 28 29 30 31 32 33 34 35 36 37 38 39 40 41 42 43 44 45 46 47 48 49 50
750
ASUS42 KCHS 182027
RWRCHS

REGIONAL WEATHER ROUNDUP
NATIONAL WEATHER SERVICE CHARLESTON SC
300 PM EST WED JAN 18 2017

NOTE: "FAIR" INDICATES FEW OR NO CLOUDS BELOW 12,000 FEET WITH NO
SIGNIFICANT WEATHER AND/OR OBSTRUCTIONS TO VISIBILITY.

NOT ALL STATIONS ARE QUALITY CONTROLLED. USE DATA WITH CAUTION...
ESPECIALLY DEWPOINT OBSERVATIONS.

SCZ027-030-031-034>040-042>050-182100-
...SOUTHEAST SOUTH CAROLINA...

CITY           SKY/WX    TMP DP  RH WIND       PRES   REMARKS
N CHARLESTON   PTSUNNY   78  58  49 W17G25    29.97F
WATERFRONT PRK   N/A     76  62  61 W7G16     29.98F
MOUNT PLEASANT FAIR      79  61  53 W15G21    29.97F
JOHNS ISLAND   MOCLDY    79  61  53 W14       29.99F
PINOPOLIS        N/A    N/A N/A N/A W16       29.88F
MONCKS CORNER  FAIR      77  57  50 W8        29.97S
SUMMERVILLE    FAIR      77  61  57 W12G22    29.99F
BEAUFORT MCAS  PTSUNNY   79  60  52 W9        30.01F
BEAUFORT ARPT  MOCLDY    77  61  57 W14       30.01S HAZE
HILTON HEAD IS SUNNY     79  61  53 W12       30.02
WALTERBORO     PTCLDY    77  59  53 W8        30.00F
ALLENDALE      FAIR      77  59  53 W9G16     30.00S

...SOUTHERN MIDLANDS AND PEE DEE...

CITY           SKY/WX    TMP DP  RH WIND       PRES   REMARKS
GEORGETOWN     FAIR      77  59  53 W14G25    29.95S
KINGSTREE      FAIR      79  50  36 W18G24    29.95S
ORANGEBURG     MOSUNNY   79  58  48 W16G22    29.98F
BARNWELL       FAIR      79  61  53 W10       30.00S
AIKEN          FAIR      77  50  38 W14G24    30.03S
MANNING        FAIR      79  19  11 W8G22     29.96S
COLUMBIA       PTSUNNY   79  49  34 W17G25    29.96S
SUMTER         SUNNY     79  50  36 W13G22    29.94S
FLORENCE       MOSUNNY   77  54  44 NW15G23   29.95S
MYRTLE BEACH   PTSUNNY   79  57  47 NW12G23   29.94S
N MYRTLE BEACH MOSUNNY   75  58  55 NW10      29.93S

$$

GAZ063-065-086>088-099>101-113>116-118-119-134>141-150-182100-
...SOUTHEAST GEORGIA...

CITY           SKY/WX    TMP DP  RH WIND       PRES   REMARKS
SAVANNAH ARPT  MOSUNNY   77  58  51 W20G25    30.03F
HUNTER AAF     SUNNY     77  61  57 W16       30.02F
FORT STEWART   SUNNY     75  60  60 SW8       30.04F
STATESBORO     SUNNY     77  62  59 W13G21    30.03S
SYLVANIA       PTCLDY   N/A N/A N/A W15G29    30.04S
CLAXTON        FAIR      78  73  84 SW8G20    30.05F

...CSRA...CENTRAL AND FAR SOUTHEAST GEORGIA...

CITY           SKY/WX    TMP DP  RH WIND       PRES   REMARKS
THOMSON        SUNNY     77  58  52 W10G18    30.08R
AUGUSTA-BUSH   MOSUNNY   79  57  46 NW9       30.00F
AUGUSTA-DANIEL MOSUNNY   79  53  40 W13G23    30.01F
SWAINSBORO     FAIR      73  63  68 MISG      30.06S
VIDALIA        PTSUNNY   79  63  57 W12       30.07F
EASTMAN        FAIR      76  46  34 NW5       30.10F
HAZLEHURST     MOCLDY    78  61  55 W6        30.07F
ALMA           MOSUNNY   76  60  57 W12G21    30.08F
WAYCROSS       PTSUNNY   77  65  68 NW10      30.09F
JESUP          CLOUDY    79  57  47 NW9       30.08S
BAXLEY         PTSUNNY   77  63  61 W10G16    30.08S
BRUNSWICK      MOSUNNY   77  63  61 W10G20    30.09S
SAINT SIMONS   MOSUNNY   76  60  57 W10       30.07F

$$

SCZ027-028-034-036>038-045-046-048>050-GAZ119-141-182100-
...LAKE AND SUPPLEMENTAL COASTAL OBSERVATIONS...

STATION/POSITION TIME  TEMP    WIND        PRES    WAVE   SWELL
                       AIR SEA DIR/SP/G            HT/PER HT/PER/DIR
                 (UTC) (F)     (DEG/KT/KT) (MB)    (FT/S) (FT/S/D)
WINYAH BAY       1945   76     270/ 12     1013.0
LAKE MURRAY      1950   75     280/ 11/ 20 1014.2F
ACE BASIN NERRS  1930   76     250/  6     1016.0
FORT PULASKI     2000   74 58  270/ 12/ 17 1016.9
SAPELO ISLAND    NOT AVBL

$$

ANZ835-935-AMZ111-154-330-350-352-354-370-450-454-472-182100-
...C-MAN AND BUOY OBSERVATIONS...

STATION/POSITION TIME  TEMP    WIND        PRES    WAVE   SWELL
                       AIR SEA DIR/SP/G            HT/PER HT/PER/DIR
                 (UTC) (F)     (DEG/KT/KT) (MB)    (FT/S) (FT/S/D)
BUOY 41004       1950   68 72  250/ 23/ 27 1014.8F   4/ 5   2/180/ 8
BUOY 41008       1950   64 61  280/  8/  8 1018.3F   1/11   2/100/11
FOLLY BEACH CMAN 2000   62     220/ 13/ 16 1016.3S
CAPERS NEARSHORE 2008   59 55  230/ 17/ 21 1014.8F
FRIPP NEARSHORE  2008   62 58  230/  8/ 10 1016.3F


STATION/POSITION TIME  TEMP    WIND        PRES    WAVE   SWELL
                       AIR SEA DIR/SP/G            HT/PER HT/PER/DIR
                 (UTC) (F)     (DEG/KT/KT) (MB)    (FT/S) (FT/S/D)
5E ST. MARYS GA  2000      63                N/A     1/11
FRYING PAN BUOY  2010   69 72  250/ 21/ 27 1013.5
BUOY 41025       1950   63 72  320/ 21/ 31 1010.7R   7/ 7   3/330/17
CAPE LOOKOUT NC  2000   62     260/ 14/ 17 1011.7R
BUOY 41002       1950   73 72  270/ 17/ 21 1013.9F   7/ 6   2/100/ 9
BUOY 41010       NOT AVBL
ST AUGUSTINE FL  2000   77 62  250/  7/ 10 1019.7F


$$




USA.gov is the U.S. government's official web portal to all federal, state and local government web resources and services.